Probability
32 30 27 27 25 22 20 19 16 14 13 14 12 10 7 5 6 7 7 6 5 4 4 3 3 2 1 2 3 3 3 2 2 1 0 0 0 0 0 0 0 0 0
34 32 31 30 28 25 22 20 17 14 13 13 11 9 8 7 8 8 8 7 5 4 5 5 4 3 2 3 3 3 3 1 1 0 0 0 0 0 0 0 0 0 0
37 36 35 34 32 28 25 22 19 15 13 13 11 10 9 9 9 10 9 7 5 4 5 5 4 3 3 3 3 3 2 1 0 0 0 0 0 0 0 0 0 0 0
42 40 37 34 32 29 27 24 19 15 13 13 12 10 10 9 9 9 8 7 5 4 4 3 3 2 2 2 2 1 1 0 0 0 0 0 0 0 0 0 0 0 0
47 43 37 32 28 26 25 22 16 13 13 12 10 9 8 7 6 5 5 5 4 3 3 2 1 1 1 1 1 0 0 0 0 0 0 0 0 0 0 0 0 0 0
49 45 38 29 24 23 20 18 14 12 12 11 9 6 5 4 3 2 2 1 1 1 2 1 0 0 0 0 0 0 0 0 0 0 0 0 0 0 0 0 0 0 0
46 45 38 28 21 19 17 16 15 14 12 10 7 5 4 3 3 1 0 0 0 0 0 0 0 0 0 0 0 0 0 0 0 0 0 0 0 0 0 0 0 0 0
41 40 34 25 19 17 16 16 15 13 11 8 6 5 4 3 3 2 0 0 0 0 0 0 0 0 0 0 0 0 0 0 0 0 0 0 0 0 0 0 0 0 0
34 33 29 23 19 17 17 16 15 12 10 8 6 6 4 3 3 1 0 0 0 0 0 0 0 0 0 0 0 0 0 0 0 0 0 0 0 0 0 0 0 0 0
27 26 24 21 18 18 17 16 14 13 10 8 7 6 5 4 3 1 0 0 0 0 0 0 0 0 0 0 0 0 0 0 0 0 0 0 0 0 0 0 0 0 0
23 22 21 19 17 16 16 14 14 13 11 9 8 7 6 5 3 1 0 0 0 0 0 0 0 0 0 0 0 0 0 0 0 0 0 0 0 0 0 0 0 0 0
22 21 18 16 15 14 13 13 13 14 13 11 10 8 7 6 4 1 0 0 0 0 0 0 0 0 0 0 0 0 0 0 0 0 0 0 0 0 0 0 0 0 0
22 19 15 12 11 11 11 11 13 14 14 12 10 9 7 6 5 2 0 0 0 0 0 0 0 0 0 0 0 0 0 0 0 0 0 0 0 0 0 0 0 0 0
20 16 11 9 9 10 9 10 11 13 14 13 12 10 9 7 4 1 0 0 0 0 0 0 0 0 0 0 0 0 0 0 0 0 0 0 0 0 0 0 0 0 0
17 13 9 9 9 8 8 8 9 11 12 13 12 11 9 6 4 1 0 0 0 0 0 0 0 0 0 0 0 0 0 0 0 0 0 0 0 0 0 0 0 0 0
15 11 7 7 7 7 8 8 7 7 7 8 8 8 7 5 3 1 0 0 0 0 0 0 0 0 0 0 0 0 0 0 0 0 0 0 0 0 0 0 0 0 0
12 9 6 5 6 7 8 8 6 4 3 3 3 4 4 4 3 1 0 0 0 0 0 0 0 0 0 0 0 0 0 0 0 0 0 0 0 0 0 0 0 0 0
11 8 5 4 5 7 8 8 6 4 3 2 1 1 2 2 2 1 0 0 0 0 0 0 0 0 0 0 0 0 0 0 0 0 0 0 0 0 0 0 0 0 0
9 7 5 4 4 6 7 8 6 4 3 3 1 1 1 1 1 0 0 0 0 0 0 0 0 0 0 0 0 0 0 0 0 0 0 0 0 0 0 0 0 0 0
7 6 5 4 4 5 7 7 6 5 4 3 3 2 1 1 1 0 0 0 0 0 0 0 0 0 0 0 0 0 0 0 0 0 0 0 0 0 0 0 0 0 0
7 7 5 4 4 6 7 7 6 6 4 3 3 2 1 2 2 1 0 0 0 0 0 0 0 0 0 0 0 0 0 0 0 0 0 0 0 0 0 0 0 0 0
7 6 5 3 4 6 7 7 6 5 4 3 2 1 1 2 2 1 0 0 0 0 0 0 0 0 0 0 0 0 0 0 0 0 0 0 0 0 0 0 0 0 0
5 5 4 3 3 4 5 5 4 4 3 2 1 0 0 1 1 0 0 0 0 0 0 0 0 0 0 0 0 0 0 0 0 0 0 0 0 0 0 0 0 0 0
3 3 2 2 2 1 2 3 3 3 3 1 0 0 0 0 0 0 0 0 0 0 0 0 0 0 0 0 0 0 0 0 0 0 0 0 0 0 0 0 0 0 0
1 1 1 1 1 0 0 1 3 3 3 1 0 0 0 0 0 0 0 0 0 0 0 0 0 0 0 0 0 0 0 0 0 0 0 0 0 0 0 0 0 0 0
0 0 0 0 0 0 0 1 2 3 3 2 1 0 0 0 0 0 0 0 0 0 0 0 0 0 0 0 0 0 0 0 0 0 0 0 0 0 0 0 0 0 0
Wind_Speed
6 5 4 3 3 2 2 2 2 1 2 2 2 3 3 3 3 3 2 2 3 2 2 2 2 2 1 1 1 1 1 2 3 1 1 2 3 4 4 4 4 4 4
6 5 4 4 3 3 2 2 2 2 2 3 3 3 3 3 2 3 2 2 3 3 3 3 3 2 2 2 1 2 1 2 3 3 2 2 3 3 4 4 3 4 3
6 5 5 4 4 3 3 2 2 3 3 3 3 3 3 2 2 2 2 2 3 3 3 3 2 3 3 2 2 2 2 2 3 4 3 2 2 3 3 3 3 2 3
6 6 5 4 4 4 3 3 3 3 3 3 3 3 2 2 2 3 3 3 3 4 4 3 3 3 3 2 3 3 3 4 4 4 3 2 2 2 3 3 2 1 1
7 6 5 4 4 4 4 4 4 3 3 3 3 3 3 3 3 3 3 4 4 4 4 4 4 6 6 4 3 3 3 3 3 3 3 2 1 2 1 1 2 1 1
7 6 5 5 5 4 4 4 4 3 3 4 4 4 4 3 5 6 5 4 4 4 3 3 4 6 7 8 7 6 5 5 4 3 2 2 2 1 1 2 2 2 0
7 6 6 6 5 5 5 4 4 4 4 5 4 4 4 4 6 6 7 4 4 3 3 3 3 4 5 4 6 8 6 6 5 4 4 3 2 2 2 2 2 2 1
6 6 5 6 5 5 5 5 4 3 4 4 4 4 4 4 6 6 7 5 4 3 3 3 3 3 3 4 5 5 4 4 3 2 3 2 2 2 3 3 3 2 1
6 5 5 6 6 5 5 4 4 4 4 3 3 4 4 3 5 6 6 4 4 4 4 4 4 3 5 6 5 4 4 3 4 5 4 3 4 4 4 3 3 3 1
6 5 5 5 5 5 5 4 3 4 4 4 4 3 3 3 4 6 6 3 4 3 3 3 4 4 4 5 4 4 3 2 2 3 4 4 3 3 4 3 3 3 1
6 6 5 5 5 5 4 4 4 4 4 4 4 3 3 3 4 5 5 3 3 3 2 1 1 3 4 4 3 2 2 1 1 2 2 2 2 2 1 1 2 3 3
6 6 5 5 4 4 4 4 4 5 5 4 3 2 1 1 2 3 5 5 4 3 2 1 0 2 3 3 2 2 3 3 2 2 2 1 1 1 1 0 0 1 2
6 6 5 4 3 4 4 4 4 4 4 3 3 2 1 1 1 3 4 4 5 3 1 1 1 1 2 2 2 3 3 2 2 2 1 1 1 1 0 1 2 2 2
6 5 5 4 3 3 2 2 3 3 4 4 4 3 2 1 1 1 1 1 2 2 1 1 1 2 2 2 2 2 1 1 2 2 1 1 1 1 1 0 1 1 2
6 5 5 4 4 3 2 2 2 2 4 5 4 4 5 3 4 5 4 2 2 2 2 2 2 1 1 1 1 1 1 1 1 1 0 0 0 0 1 1 0 1 1
5 5 4 4 3 3 3 2 4 1 2 5 6 6 3 4 6 6 5 5 4 5 4 1 1 1 1 1 1 1 0 1 1 1 1 1 1 1 1 1 0 1 1
6 5 4 4 4 4 4 4 2 2 3 2 4 6 6 7 7 7 6 5 4 5 2 1 2 2 2 2 2 2 2 2 1 1 1 1 1 1 1 0 0 0 1
5 5 5 4 4 4 4 4 4 4 2 0 1 4 6 6 6 6 5 4 2 1 2 2 3 3 2 2 2 2 2 1 1 1 1 1 1 1 1 1 1 1 1
4 4 3 3 4 4 4 3 3 3 3 2 1 1 2 3 3 4 5 3 3 3 3 3 3 3 3 2 2 2 2 2 2 1 1 1 1 1 1 1 1 2 1
3 5 5 4 3 3 4 4 3 3 3 3 3 3 3 3 2 3 3 3 3 3 3 3 3 3 3 3 3 2 2 2 2 1 1 1 1 1 2 2 2 1 2
3 4 5 4 3 4 4 4 4 4 4 4 4 4 6 4 4 4 4 4 4 4 4 3 3 3 3 3 2 3 3 2 2 2 2 2 1 2 2 2 2 2 2
3 3 3 3 3 3 3 3 3 4 4 4 3 3 6 3 3 3 4 4 4 4 4 3 3 3 3 3 3 3 3 2 2 2 2 2 2 2 2 1 1 1 2
3 3 3 2 2 3 3 2 3 3 3 4 3 3 4 4 4 3 3 3 3 3 3 3 3 3 2 2 3 3 3 3 3 3 3 2 2 2 2 2 2 2 2
3 3 3 3 2 3 3 2 2 3 3 3 3 3 4 4 4 4 4 3 3 3 3 3 3 4 4 3 2 2 2 3 2 2 3 3 3 2 2 2 2 2 2
3 3 3 3 3 3 3 3 3 3 3 3 3 3 3 3 3 3 3 3 3 3 3 3 3 3 4 4 4 3 3 4 3 2 2 2 3 2 2 2 2 2 2
3 3 3 3 3 3 3 3 3 3 3 3 3 3 3 3 3 3 3 3 3 2 3 3 4 4 4 3 4 4 4 3 3 3 2 2 2 2 1 2 2 2 3
Wind_Direction
168 164 155 158 159 147 135 131 127 107 99 92 93 91 79 68 72 81 76 73 68 38 23 36 14 12 28 23 58 92 114 132 143 119 75 93 91 100 98 86 82 81 85
167 158 157 155 148 141 138 136 126 112 103 108 103 91 86 77 73 86 82 71 69 51 29 32 12 28 39 34 59 78 96 118 136 132 98 84 88 116 114 106 97 94 91
156 150 150 151 145 144 143 136 118 107 104 103 103 98 91 82 78 78 93 84 75 64 52 48 26 45 45 43 62 74 81 90 108 125 117 100 96 117 107 101 96 77 95
146 146 151 156 153 150 142 128 114 110 107 107 107 108 101 88 80 80 86 82 74 65 59 58 56 63 64 64 74 76 92 93 97 110 113 109 104 114 113 116 97 61 80
141 142 147 148 144 136 129 119 113 110 108 105 99 85 82 87 82 89 92 91 81 70 55 51 62 73 72 76 91 100 105 105 107 111 117 108 103 116 137 149 128 106 32
143 145 143 136 132 127 122 118 112 103 95 95 92 88 79 77 82 90 97 89 83 78 68 55 64 61 64 67 79 89 107 123 129 128 129 134 155 151 145 145 136 124 205
143 145 145 142 136 137 131 118 115 112 102 96 95 93 87 77 85 91 94 98 93 88 81 72 70 64 65 68 67 64 66 86 115 138 139 158 164 181 153 138 146 153 190
139 143 144 143 141 138 130 129 126 120 117 112 107 105 97 78 81 91 99 93 90 82 78 85 83 62 64 83 79 63 51 47 66 99 136 161 159 163 163 157 148 120 57
135 139 144 143 144 142 142 143 138 127 120 117 121 115 103 81 84 95 100 95 87 73 69 74 86 80 71 86 87 76 53 28 47 70 82 88 96 112 124 110 104 107 81
139 136 134 136 143 147 148 141 131 128 127 121 108 109 110 102 95 102 107 107 100 86 64 60 72 84 77 87 98 98 83 35 51 54 50 44 49 63 88 124 145 139 139
135 129 127 130 136 139 137 137 132 127 123 117 112 106 108 110 109 111 117 115 127 121 106 69 31 73 82 85 101 119 145 143 103 86 66 41 26 27 34 84 145 149 155
129 127 126 130 137 131 129 133 132 136 133 130 120 104 83 94 109 124 126 125 132 129 144 175 204 83 78 74 79 86 98 102 98 81 67 35 8 339 327 326 176 168 183
129 128 127 124 117 125 137 147 144 147 150 151 149 149 144 76 85 114 130 133 133 131 163 175 142 85 64 52 44 75 95 101 104 103 116 258 261 255 309 14 18 30 22
138 134 131 130 123 117 124 142 154 166 168 167 169 173 169 156 154 122 120 119 114 96 79 52 61 59 52 30 26 52 77 130 145 161 202 249 308 18 13 33 58 39 30
141 142 141 142 143 130 113 113 157 183 187 176 182 178 171 183 212 191 166 168 173 169 119 68 52 46 38 24 10 5 26 67 109 143 145 120 50 68 300 314 92 91 96
147 152 155 153 147 142 134 93 43 86 162 173 174 170 182 188 179 176 172 169 166 149 121 112 153 186 188 193 196 245 271 236 222 193 180 172 177 207 257 297 87 133 176
158 163 160 158 158 160 158 154 144 41 55 126 181 178 176 174 173 172 171 169 166 149 133 174 199 206 206 205 200 201 221 228 209 191 198 208 196 194 194 221 191 161 217
159 163 163 167 169 170 171 170 167 167 170 241 272 201 188 181 178 172 157 130 127 152 185 195 202 206 205 202 200 200 211 210 190 197 216 223 195 177 192 219 212 203 216
161 165 168 169 171 171 169 168 175 180 181 181 179 244 199 184 177 176 156 159 182 201 209 208 205 203 207 202 198 193 190 193 190 182 196 211 204 188 210 229 229 239 213
168 167 160 160 163 167 169 170 179 185 186 187 193 194 163 145 172 188 194 198 197 208 210 212 213 206 201 196 190 184 188 197 197 197 211 221 217 201 213 226 219 219 224
159 162 155 151 166 175 178 184 189 187 191 195 201 192 173 180 196 198 201 206 206 210 210 210 210 208 199 188 186 186 188 197 199 201 208 219 218 217 226 224 223 217 220
156 156 157 163 170 174 179 184 181 187 192 191 193 183 185 191 198 207 210 214 214 212 206 196 198 201 191 181 180 181 187 196 207 207 213 224 228 231 229 225 228 231 233
148 151 156 164 171 171 166 169 174 180 186 192 188 179 183 202 204 207 213 219 214 210 203 191 190 198 190 175 174 171 175 193 208 205 209 223 227 231 228 229 232 237 246
152 158 165 169 167 167 170 175 180 186 188 191 190 187 189 203 208 207 208 211 207 205 199 189 184 179 173 171 176 182 190 201 203 204 201 204 212 218 218 228 237 241 243
153 159 166 172 173 175 180 186 190 194 194 194 189 189 187 192 201 201 201 196 191 194 190 180 174 174 180 186 189 198 204 206 210 205 196 191 200 210 213 223 234 247 254
163 169 174 178 181 183 185 192 195 191 190 188 188 189 183 183 191 194 193 187 184 187 185 180 179 181 185 195 201 200 201 206 209 202 183 180 189 211 223 235 244 249 262